1998-067QZ

Last updated on Sun Feb 23 2020 00:02:06 GMT+0000 (Coordinated Universal Time)

1 45256U 98067QZ 20052.64799524 .00005438 00000-0 10401-3 0 9996 2 45256 51.6454 205.0862 0007426 286.1051 73.9120 15.49766047 386
UTC large
Height (km)
Speed (km/s)
/
Latitude / Longitude
Inclination (degrees)
Orbital Period (minutes)
Azimuth
Elevation
Range (km)
Doppler Factor

Next 0 passes for location: London (51.5072 / 0.1276)

Sorry there are no passes over London.